Regional Weather Roundup
Issued by NWS

Home | Current Version | Previous Version | Graphics & Text | Print | Product List | Glossary On
Versions: 1 2 3 4 5 6 7 8 9 10 11 12 13 14 15 16 17 18 19 20 21 22 23 24 25 26 27 28 29 30 31 32 33 34 35 36 37 38 39 40 41 42 43 44 45 46 47 48 49 50
000
ASUS45 KBOU 012307
RWRCO

WEATHER ROUNDUP FOR COLORADO
NATIONAL WEATHER SERVICE DENVER/BOULDER CO
500 PM MDT TUE SEP 01 2015

NOTE: "FAIR" INDICATES FEW OR NO CLOUDS BELOW 12000 FEET WITH NO
SIGNIFICANT WEATHER AND/OR OBSTRUCTIONS TO VISIBILITY.

COZ001>005-013-030-031-020000-
...NORTHWEST COLORADO...

CITY           SKY/WX    TMP DP  RH WIND       PRES   REMARKS
CRAIG          CLOUDY    76  44  32 S15       30.15R
HAYDEN         NOT AVBL
MEEKER         LGT RAIN  60  51  72 E10       30.23R
MOUNT WERNER   NOT AVBL
STEAMBOAT SPGS CLOUDY    66  47  48 NE8       30.22S
WALDEN         PTSUNNY   66  37  34 S20       30.29S
$$

COZ006>008-011-020000-
...WEST CENTRAL VALLEYS...

CITY           SKY/WX    TMP DP  RH WIND       PRES   REMARKS
GRAND JUNCTION MOSUNNY   85  45  24 VRB3      30.02F
MONTROSE       PTSUNNY   79  51  37 NW8       30.12R
EAGLE          MOSUNNY   81  37  21 N6        30.19F
RIFLE          MOSUNNY   83  44  25 CALM      30.09F
DELTA          PTSUNNY   90  41  18 CALM      30.05S HAZE
NUCLA          PTSUNNY   82  41  23 NW9       30.16S
$$

COZ017>023-064>068-020000-
...SOUTHWEST COLORADO...

CITY           SKY/WX    TMP DP  RH WIND       PRES   REMARKS
DURANGO        MOSUNNY   81  40  23 SW10G23   30.19F
CORTEZ         SUNNY     86  39  19 SW12      30.13S
PAGOSA SPRINGS MOSUNNY   78  35  20 SW10G17   30.27F
TELLURIDE      LGT RAIN  66  44  45 CALM      30.39S
WOLF CREEK PAS PTSUNNY   54  36  50 SW12G20   30.61S
$$

COZ009-010-012-014-032>034-037-058>063-020000-
...CENTRAL COLORADO...

CITY           SKY/WX    TMP DP  RH WIND       PRES   REMARKS
ASPEN          MOSUNNY   75  40  28 CALM      30.26F
BUENA VISTA    MOSUNNY   76  34  21 CALM      30.26S
COPPER MTN     PTSUNNY   59  30  33 W15G25    30.59S
BERTHOUD PASS  CLOUDY    46  34  61 N7        30.65R
COTTONWOOD PAS MOSUNNY   68  37  32 CALM      30.42S
GUNNISON       MOSUNNY   73  36  25 S14       30.26S
KREMMLING      PTSUNNY   68  43  40 CALM      30.30F
LEADVILLE      SUNNY     63  32  31 S5        30.41F
SALIDA         MOSUNNY   79  36  21 N8        30.29S
SUNLIGHT       PTSUNNY   59  45  58 CALM      30.53R
WILKERSON PASS PTSUNNY   59  32  36 NW3       30.56F
$$

COZ069>075-020000-
...SAN LUIS VALLEY/SANGRE DE CRISTO MOUNTAINS...

CITY           SKY/WX    TMP DP  RH WIND       PRES   REMARKS
ALAMOSA        MOSUNNY   77  37  23 S8        30.24F
LA VETA PASS   PTSUNNY   68  34  28 S8        30.45S
SAGUACHE       CLOUDY    72  43  35 SW12      30.29R
$$

COZ035-036-038>040-020000-
...NORTHERN COLORADO FRONT RANGE...

CITY           SKY/WX    TMP DP  RH WIND       PRES   REMARKS
DENVER INTL AP PTSUNNY   85  39  19 E7        30.04F
DMNS CITY PARK   N/A     87  36  16 SW7       30.04S
AURORA         PTSUNNY   87  40  19 SE13      30.07S
FRONT RANGE AP PTSUNNY   84  36  17 SE8       30.07S
ERIE MUNI ARPT LGT RAIN  76  44  30 NW15G23   30.06R
BOULDER MUN AP PTSUNNY   82  41  23 N15G23    30.06R
CENTENNIAL     PTSUNNY   83  39  21 S7        30.09S
BROOMFIELD     LGT RAIN  86  37  17 NW17      30.08R
FORT COLLINS   PTSUNNY   82  39  21 SW10G16   30.01R
LONGMONT       PTSUNNY   82  41  24 N14G21    30.06S
$$

COZ041-046-047-076>085-087-088-020000-
...PIKES PEAK/PALMER DIVIDE AND SOUTHERN FOOTHILLS...

CITY           SKY/WX    TMP DP  RH WIND       PRES   REMARKS
COLO. SPRINGS  PTSUNNY   82  38  20 E9        30.12F THUNDER
A. F. ACADEMY  CLOUDY    77  41  27 VRB6      30.16R
ELLICOTT       PTSUNNY  N/A N/A N/A MISG      30.10F
FALCON         CLOUDY    76  40  27 MISG      30.19S
FORT CARSON    PTSUNNY   82  46  27 SE6       30.08F
LIMON          SUNNY     87  38  17 VRB3      30.07F
MONUMENT HILL  CLOUDY    73  39  29 E5        30.20F
TRINIDAD       MOSUNNY   89  41  18 S10       30.08F
$$

COZ042>045-048>051-090-091-020000-
...NORTHEAST COLORADO...

CITY           SKY/WX    TMP DP  RH WIND       PRES   REMARKS
GREELEY ARPT   MOSUNNY   90  39  17 S10       30.00S
AKRON          SUNNY     88  31  13 VRB3      30.01S
BURLINGTON     SUNNY     88  53  30 VRB6      29.99F
WRAY           CLOUDY    96  36  12 CALM      29.94F
STERLING       NOT AVBL
HOLYOKE        SUNNY     91  50  24 SE9       29.95R
FORT MORGAN    SUNNY     91  37  15 SE7       29.99F
$$

COZ086-089-092>099-020000-
...SOUTHEAST COLORADO...

CITY           SKY/WX    TMP DP  RH WIND       PRES   REMARKS
PUEBLO         MOSUNNY   92  40  16 E6        29.98F
LA JUNTA       PTSUNNY   93  49  22 CALM      29.97F
LAMAR          MOSUNNY   90  57  32 SE13      29.94S
SPRINGFIELD      N/A     86  54  33 SW6G22    30.01F
$$




USA.gov is the U.S. government's official web portal to all federal, state and local government web resources and services.